Location: Lecco
(45.8566°N, 9.3977°E)
Time: 13:53:50
(UTC+02:00)

ISS - Pass Details

Date: 16 July 2018
Orbit: 402 x 408 km, 51.6° (Epoch: 21 July)

Event Time Altitude Azimuth Distance (km) Brightness Sun altitude
Rises 04:05:39 0° 293° (WNW) 2,332 -0.1 -13.9°
Reaches altitude 10° 04:07:53 10° 304° (NW) 1,471 -1.0 -13.7°
Maximum altitude 04:10:53 31° 9° (N) 738 -1.9 -13.3°
Drops below altitude 10° 04:13:53 10° 75° (ENE) 1,471 -0.1 -13.0°
Sets 04:16:07 0° 86° (E) 2,332 0.7 -12.8°
